SCP
0 0 0 0 0 0 0 0 0 0 0 0 0 0 0 0 0 0 0 0 0 0 0 0 0 0 0 0 0 0 0 0 0 0 0 0 1 1 0 0 0 0 0
0 0 0 0 0 0 0 0 0 0 0 0 0 0 0 0 0 0 0 0 0 0 0 0 0 0 0 0 0 0 0 0 0 0 0 0 0 0 0 0 0 0 0
0 0 0 0 0 0 0 0 0 0 0 0 0 0 0 0 0 0 0 0 0 0 0 0 0 0 0 0 0 0 0 0 0 0 0 0 0 0 0 0 0 0 0
0 0 0 0 0 0 0 0 0 0 0 0 0 0 0 0 0 0 0 0 0 0 0 0 0 0 0 0 0 0 0 0 0 0 0 0 0 0 0 0 0 0 0
0 0 0 0 0 0 0 0 0 0 0 0 0 0 0 0 0 0 0 0 0 0 0 0 0 0 0 0 0 0 0 0 0 0 0 0 0 0 0 0 0 0 0
0 0 0 0 0 0 0 0 0 0 0 0 0 0 0 0 0 0 0 0 0 0 0 0 0 0 0 0 0 0 0 0 0 0 0 0 0 0 0 0 0 0 0
0 0 0 0 0 0 0 0 0 0 0 0 0 0 0 0 0 0 0 0 0 0 0 0 0 0 0 0 0 0 0 0 0 0 0 0 0 0 0 0 0 0 0
0 0 0 0 0 0 0 0 0 0 0 0 0 0 0 0 0 0 0 0 0 0 0 0 0 0 0 0 0 0 0 0 0 0 0 0 0 0 0 0 0 0 0
0 0 0 0 0 0 0 0 0 0 0 0 0 0 0 0 0 0 0 0 0 0 0 0 0 0 0 0 0 0 0 0 0 0 0 0 0 0 0 0 0 0 0
0 0 0 0 0 0 0 0 0 0 0 0 0 0 0 0 0 0 0 0 0 0 0 0 0 0 0 0 0 0 0 0 0 0 0 0 0 0 0 0 0 0 0
0 0 0 0 0 0 0 0 0 0 0 0 0 0 0 0 0 0 0 0 0 0 0 0 0 0 0 0 0 0 0 0 0 0 0 0 0 0 0 0 0 0 0
0 0 0 0 0 0 0 0 0 0 0 0 0 0 0 0 0 0 0 0 0 0 0 0 0 0 0 0 0 0 0 0 0 0 0 0 0 0 0 0 0 0 0
0 0 0 0 0 0 0 0 0 0 0 0 0 0 0 0 0 0 0 0 0 0 0 0 0 0 0 0 0 0 0 0 0 0 -0 0 0 0 0 0 0 0 0
0 0 0 0 0 0 0 0 0 0 0 0 0 0 0 0 0 0 0 0 0 0 0 0 0 0 0 0 0 0 0 0 0 0 -0 0 0 0 0 0 0 0 0
0 0 0 0 0 0 0 0 0 0 0 0 0 0 0 0 0 0 0 0 0 0 0 0 0 0 0 0 0 0 0 0 0 0 0 0 0 0 0 0 0 0 0
0 0 0 0 0 0 0 0 0 0 0 0 0 0 0 0 0 0 0 0 0 0 -0 0 0 0 0 0 0 0 0 0 0 0 0 0 0 0 0 0 0 0 0
0 0 0 0 0 0 0 0 0 0 0 0 0 0 0 0 0 0 0 -0 -0 0 0 0 0 -0 0 0 0 0 0 0 0 0 0 0 0 0 0 0 0 0 0
0 0 0 0 0 0 0 0 0 0 0 0 0 0 0 0 0 0 0 0 0 0 0 0 0 0 0 0 0 0 0 0 0 0 0 0 0 0 0 0 0 0 0
0 0 0 0 0 0 0 0 0 0 0 0 0 0 0 0 -0 0 -0 0 0 0 0 0 0 0 0 0 -0 0 0 0 0 0 0 0 0 0 0 0 0 0 0
0 -0 0 0 0 0 0 0 0 0 0 0 0 0 0 0 -0 0 0 -0 -0 0 0 -0 -0 0 0 0 -0 0 0 0 0 0 0 0 0 0 0 0 0 0 0
0 -0 -0 0 0 0 0 0 0 0 0 0 0 0 0 -0 0 0 0 0 -0 0 0 -0 -0 0 0 0 0 -0 0 0 0 0 0 0 0 0 0 0 0 0 0
-0 -0 0 0 0 0 0 0 0 0 0 0 0 0 -0 0 0 0 0 0 0 0 0 -0 -0 0 0 0 0 -0 0 0 0 0 0 0 0 0 0 0 0 0 0
0 0 0 0 -0 -0 0 0 0 0 0 0 0 0 0 -0 0 0 0 0 0 -0 0 -0 -0 0 0 0 0 0 0 0 0 0 0 0 0 0 0 0 0 0 0
0 -0 0 -0 -0 0 0 0 0 0 0 0 0 0 -0 -0 -0 0 0 0 0 0 -0 -0 -0 -0 0 0 0 0 0 0 0 0 0 0 0 0 0 0 0 0 0
-0 0 -0 -0 -0 0 0 0 0 0 0 0 0 0 -0 -0 -0 -0 0 0 0 0 0 -0 -0 -0 0 -0 0 0 0 0 0 0 0 0 0 0 0 0 0 0 0
0 -0 -0 0 0 0 0 0 0 0 0 0 0 0 0 -0 -0 -0 -0 0 0 0 0 0 0 -0 -0 -0 0 0 0 0 0 0 0 0 0 0 0 0 0 0 0
Wind_Speed_500mb
40 50 51 48 46 44 46 48 49 49 50 54 56 56 56 55 54 54 58 63 61 58 55 54 60 58 57 57 59 55 49 46 56 63 56 45 42 39 38 43 51 55 58
47 52 51 47 48 49 51 51 51 51 53 57 59 59 59 58 56 58 65 68 63 58 58 52 54 52 51 51 55 57 61 63 66 62 38 46 51 42 36 44 50 61 56
48 48 49 50 48 48 50 50 51 54 57 59 60 60 62 62 61 67 76 73 64 64 62 60 57 56 59 54 51 59 64 59 52 49 59 46 42 40 33 41 52 82 70
40 43 44 45 49 44 43 51 56 57 58 61 62 64 66 67 69 78 81 76 65 63 63 64 66 66 63 55 57 54 50 62 68 63 56 50 52 41 45 42 70 70 73
48 45 45 49 52 53 53 55 55 58 63 65 66 68 69 70 81 83 78 68 66 70 70 71 71 71 74 70 60 63 61 53 50 64 67 55 52 46 57 55 69 65 73
42 41 42 45 48 44 45 52 56 60 63 66 74 79 80 82 83 80 72 74 77 79 78 78 76 80 81 82 81 77 76 73 69 58 74 65 56 55 66 65 74 83 79
42 36 41 43 41 41 46 49 55 62 70 75 83 85 84 81 77 72 67 71 78 81 82 83 84 88 93 97 90 84 84 82 80 74 75 83 65 46 71 80 79 82 78
37 35 37 37 38 42 47 57 62 65 74 80 85 85 81 75 75 73 71 75 80 83 85 87 88 88 96 97 90 85 88 86 88 82 81 77 91 47 64 79 76 75 77
29 30 29 34 40 44 53 57 66 73 76 78 79 77 77 76 72 77 76 75 79 82 82 82 82 86 87 80 87 91 92 90 84 87 78 64 99 85 45 71 88 88 77
21 22 27 38 45 53 55 65 67 68 72 70 71 67 73 79 66 60 60 66 75 78 80 83 83 85 89 89 90 91 97 97 89 86 81 73 82 108 97 69 94 92 91
18 26 36 42 41 51 59 59 60 60 60 63 68 68 70 67 62 57 62 68 73 80 89 99 103 103 104 104 103 100 108 99 94 91 82 73 74 101 93 75 102 92 87
28 31 34 39 48 49 46 47 50 54 56 57 59 61 58 66 79 83 77 75 73 85 97 100 103 95 90 90 94 97 86 86 97 88 78 81 77 96 97 80 104 97 73
25 29 42 43 35 33 37 43 47 42 47 54 61 74 80 91 90 81 73 72 78 90 94 98 101 100 96 91 87 81 79 77 96 89 85 89 77 88 99 82 89 87 83
28 32 28 27 27 32 31 35 36 44 52 62 74 91 91 87 85 81 83 89 92 95 98 100 100 100 97 97 85 79 81 84 94 99 93 77 76 85 94 101 97 97 88
23 20 21 19 26 29 28 35 41 45 51 67 80 72 73 83 82 79 81 83 88 94 90 90 92 91 88 80 78 80 86 88 97 100 100 73 81 94 93 110 95 100 89
13 13 15 21 22 25 30 37 40 45 55 63 53 54 59 63 69 68 67 73 79 75 66 71 71 72 83 87 71 76 88 94 103 102 109 78 83 110 102 108 100 102 94
9 10 14 16 21 25 32 41 52 57 54 55 50 49 47 55 55 54 58 67 75 65 61 66 70 61 50 55 60 76 94 97 106 109 111 79 93 102 104 102 105 103 94
4 15 16 16 18 23 31 39 47 56 64 65 54 52 52 51 49 51 63 74 86 73 71 72 64 53 45 40 49 74 89 94 104 104 96 92 98 99 98 105 105 101 102
3 9 12 11 16 25 31 38 45 49 53 58 61 57 59 55 53 59 67 74 81 82 76 73 56 36 37 19 40 69 85 96 107 102 87 92 95 100 100 102 107 106 106
10 26 26 16 22 29 34 40 45 48 51 54 57 59 60 61 66 72 76 82 84 83 78 72 37 22 26 15 54 70 82 90 87 98 88 93 105 100 96 106 107 110 110
6 13 16 19 25 29 34 41 46 50 52 53 55 54 58 63 72 78 81 84 86 86 75 65 28 7 36 29 56 57 73 81 89 88 91 88 98 99 95 109 111 111 105
8 15 18 21 20 28 34 40 46 50 53 55 59 59 64 69 75 80 83 86 88 89 75 66 39 20 38 39 56 65 65 79 82 92 86 83 89 99 105 108 108 107 107
3 13 17 17 19 27 34 43 44 46 52 59 63 67 69 75 78 82 85 86 86 95 87 74 58 33 28 39 54 65 68 77 84 84 88 93 95 99 103 103 106 106 104
8 14 12 14 19 22 32 37 40 48 51 56 64 69 70 74 77 85 85 86 87 92 92 85 73 56 41 24 46 55 67 81 78 87 94 99 102 99 100 99 102 105 106
18 16 18 13 17 25 29 36 48 52 61 62 60 66 71 73 76 83 86 85 86 87 93 91 84 72 63 37 43 50 53 60 59 70 80 86 86 91 95 94 95 96 102
15 21 19 18 24 32 35 42 48 51 57 64 65 68 73 76 75 77 81 86 87 92 93 92 90 83 71 63 45 29 43 55 57 68 74 73 81 87 90 89 89 89 92
Wind_Direction_500mb
223 224 231 237 246 256 264 272 277 284 292 298 303 303 300 295 292 287 286 289 288 281 279 272 269 269 271 265 259 260 271 272 274 277 275 290 276 268 257 250 244 221 233
216 222 232 239 242 250 261 270 278 284 291 297 299 298 294 291 287 281 281 281 281 274 277 277 279 280 276 264 262 263 264 262 267 278 266 272 276 273 254 253 234 222 233
213 220 231 237 250 258 269 276 283 286 291 294 295 292 290 289 283 277 281 281 277 271 273 277 281 279 276 279 271 263 259 259 260 278 276 266 276 257 236 244 237 226 215
213 220 230 246 251 261 261 268 276 285 290 293 292 289 287 285 279 281 286 286 279 271 269 269 271 273 268 272 276 274 272 262 257 259 263 262 265 247 231 214 204 213 207
216 221 231 238 247 257 265 275 282 283 286 289 289 288 286 281 282 286 287 281 276 274 276 275 275 271 265 264 264 267 270 268 267 261 258 253 254 234 215 210 204 215 206
219 225 233 246 253 260 265 274 282 287 287 286 286 288 287 285 284 284 276 270 272 274 276 272 273 273 268 268 265 261 254 255 254 250 250 247 244 236 219 214 212 205 200
224 231 237 245 254 260 271 275 277 277 282 284 287 291 292 293 293 292 288 282 278 275 273 272 271 267 266 267 269 267 262 258 252 249 252 242 238 242 228 217 215 214 225
220 226 238 251 258 262 267 269 276 280 281 286 290 294 295 293 290 290 284 282 282 281 279 277 275 266 263 262 264 263 261 263 257 247 246 240 234 224 222 233 231 221 216
218 228 247 258 263 261 266 274 276 283 286 287 289 290 292 292 290 290 291 289 286 283 282 280 273 271 272 265 260 261 260 260 260 259 249 251 232 225 230 221 212 206 208
218 248 251 251 256 271 274 278 288 290 291 297 300 299 294 301 310 311 308 300 294 289 289 289 287 283 280 271 261 260 257 255 254 247 248 243 238 228 233 229 223 213 206
233 236 247 264 272 268 281 291 297 303 304 299 302 311 312 311 307 291 287 286 285 284 282 283 285 283 279 271 261 254 254 254 248 245 244 241 239 227 226 232 219 223 215
232 247 265 258 266 281 292 300 299 300 310 312 306 303 297 286 291 295 292 289 283 279 284 287 288 290 287 278 270 264 256 243 240 239 240 227 226 222 216 220 213 221 230
253 257 258 277 287 295 287 297 304 313 305 305 306 305 307 306 309 310 312 307 304 302 298 295 295 293 288 281 270 261 250 233 232 230 229 222 214 217 213 211 215 225 224
253 266 279 281 290 294 293 307 310 305 309 309 308 308 309 310 312 317 316 310 306 304 302 300 297 293 286 277 268 255 240 228 219 219 220 218 206 206 208 206 209 213 211
252 272 282 291 285 301 312 302 314 315 308 306 306 311 311 309 313 311 308 308 306 304 304 296 292 290 287 278 263 241 230 216 213 212 207 211 201 193 202 198 203 205 207
257 276 281 295 308 306 312 321 304 310 306 313 319 316 311 310 312 314 315 312 314 312 306 301 300 301 289 276 254 228 213 208 200 201 196 203 191 190 195 195 193 203 202
259 289 299 321 309 319 330 319 326 319 330 332 337 331 324 322 330 327 324 331 333 330 324 323 317 309 293 264 240 212 197 199 193 194 190 198 192 181 186 186 191 195 199
320 324 326 328 330 333 325 330 324 335 338 341 345 343 343 346 345 351 351 351 344 343 340 333 329 334 287 264 224 198 188 185 187 189 187 194 181 186 191 188 195 192 195
22 343 357 344 358 340 342 343 349 348 347 349 347 348 353 354 357 5 359 1 354 349 346 343 343 334 270 249 193 182 178 178 182 182 188 188 182 185 188 193 191 190 193
349 22 14 26 359 0 4 7 5 3 2 2 3 1 359 3 11 12 10 9 1 357 354 353 356 341 210 182 168 179 176 177 174 176 180 177 183 194 192 192 191 192 197
46 14 6 5 7 17 18 21 19 16 13 12 13 16 22 19 20 20 16 15 9 6 1 8 26 322 181 170 170 178 177 176 174 173 179 179 183 184 195 192 195 198 198
83 24 346 0 12 26 28 25 24 24 24 23 23 25 30 29 28 28 25 22 19 19 17 22 43 103 121 163 169 181 181 178 183 182 185 190 188 185 190 194 193 195 197
25 34 359 358 11 22 26 24 27 29 31 30 30 28 32 33 33 33 30 27 25 29 27 34 45 130 133 155 153 174 179 182 189 188 186 184 180 186 192 194 193 192 195
30 40 39 360 11 16 26 30 31 33 30 29 30 31 33 36 36 37 34 31 31 33 31 38 46 63 155 165 171 166 168 174 178 180 179 182 187 192 195 198 197 200 198
57 47 40 40 27 34 48 48 35 32 31 29 30 30 32 36 37 38 36 36 37 38 40 40 45 53 62 117 160 175 184 183 185 190 194 197 199 197 198 199 196 195 194
68 57 44 61 57 57 47 32 24 31 34 33 33 33 34 33 35 36 36 38 41 41 42 43 44 50 59 64 77 141 177 186 192 196 198 201 203 201 200 203 204 203 201
Wind_Speed_850mb
40 50 51 48 46 44 46 48 49 49 50 54 56 56 56 55 54 54 58 63 61 58 55 54 60 58 57 57 59 55 49 46 56 63 56 45 42 39 38 43 51 55 58
47 52 51 47 48 49 51 51 51 51 53 57 59 59 59 58 56 58 65 68 63 58 58 52 54 52 51 51 55 57 61 63 66 62 38 46 51 42 36 44 50 61 56
48 48 49 50 48 48 50 50 51 54 57 59 60 60 62 62 61 67 76 73 64 64 62 60 57 56 59 54 51 59 64 59 52 49 59 46 42 40 33 41 52 82 70
40 43 44 45 49 44 43 51 56 57 58 61 62 64 66 67 69 78 81 76 65 63 63 64 66 66 63 55 57 54 50 62 68 63 56 50 52 41 45 42 70 70 73
48 45 45 49 52 53 53 55 55 58 63 65 66 68 69 70 81 83 78 68 66 70 70 71 71 71 74 70 60 63 61 53 50 64 67 55 52 46 57 55 69 65 73
42 41 42 45 48 44 45 52 56 60 63 66 74 79 80 82 83 80 72 74 77 79 78 78 76 80 81 82 81 77 76 73 69 58 74 65 56 55 66 65 74 83 79
42 36 41 43 41 41 46 49 55 62 70 75 83 85 84 81 77 72 67 71 78 81 82 83 84 88 93 97 90 84 84 82 80 74 75 83 65 46 71 80 79 82 78
37 35 37 37 38 42 47 57 62 65 74 80 85 85 81 75 75 73 71 75 80 83 85 87 88 88 96 97 90 85 88 86 88 82 81 77 91 47 64 79 76 75 77
29 30 29 34 40 44 53 57 66 73 76 78 79 77 77 76 72 77 76 75 79 82 82 82 82 86 87 80 87 91 92 90 84 87 78 64 99 85 45 71 88 88 77
21 22 27 38 45 53 55 65 67 68 72 70 71 67 73 79 66 60 60 66 75 78 80 83 83 85 89 89 90 91 97 97 89 86 81 73 82 108 97 69 94 92 91
18 26 36 42 41 51 59 59 60 60 60 63 68 68 70 67 62 57 62 68 73 80 89 99 103 103 104 104 103 100 108 99 94 91 82 73 74 101 93 75 102 92 87
28 31 34 39 48 49 46 47 50 54 56 57 59 61 58 66 79 83 77 75 73 85 97 100 103 95 90 90 94 97 86 86 97 88 78 81 77 96 97 80 104 97 73
25 29 42 43 35 33 37 43 47 42 47 54 61 74 80 91 90 81 73 72 78 90 94 98 101 100 96 91 87 81 79 77 96 89 85 89 77 88 99 82 89 87 83
28 32 28 27 27 32 31 35 36 44 52 62 74 91 91 87 85 81 83 89 92 95 98 100 100 100 97 97 85 79 81 84 94 99 93 77 76 85 94 101 97 97 88
23 20 21 19 26 29 28 35 41 45 51 67 80 72 73 83 82 79 81 83 88 94 90 90 92 91 88 80 78 80 86 88 97 100 100 73 81 94 93 110 95 100 89
13 13 15 21 22 25 30 37 40 45 55 63 53 54 59 63 69 68 67 73 79 75 66 71 71 72 83 87 71 76 88 94 103 102 109 78 83 110 102 108 100 102 94
9 10 14 16 21 25 32 41 52 57 54 55 50 49 47 55 55 54 58 67 75 65 61 66 70 61 50 55 60 76 94 97 106 109 111 79 93 102 104 102 105 103 94
4 15 16 16 18 23 31 39 47 56 64 65 54 52 52 51 49 51 63 74 86 73 71 72 64 53 45 40 49 74 89 94 104 104 96 92 98 99 98 105 105 101 102
3 9 12 11 16 25 31 38 45 49 53 58 61 57 59 55 53 59 67 74 81 82 76 73 56 36 37 19 40 69 85 96 107 102 87 92 95 100 100 102 107 106 106
10 26 26 16 22 29 34 40 45 48 51 54 57 59 60 61 66 72 76 82 84 83 78 72 37 22 26 15 54 70 82 90 87 98 88 93 105 100 96 106 107 110 110
6 13 16 19 25 29 34 41 46 50 52 53 55 54 58 63 72 78 81 84 86 86 75 65 28 7 36 29 56 57 73 81 89 88 91 88 98 99 95 109 111 111 105
8 15 18 21 20 28 34 40 46 50 53 55 59 59 64 69 75 80 83 86 88 89 75 66 39 20 38 39 56 65 65 79 82 92 86 83 89 99 105 108 108 107 107
3 13 17 17 19 27 34 43 44 46 52 59 63 67 69 75 78 82 85 86 86 95 87 74 58 33 28 39 54 65 68 77 84 84 88 93 95 99 103 103 106 106 104
8 14 12 14 19 22 32 37 40 48 51 56 64 69 70 74 77 85 85 86 87 92 92 85 73 56 41 24 46 55 67 81 78 87 94 99 102 99 100 99 102 105 106
18 16 18 13 17 25 29 36 48 52 61 62 60 66 71 73 76 83 86 85 86 87 93 91 84 72 63 37 43 50 53 60 59 70 80 86 86 91 95 94 95 96 102
15 21 19 18 24 32 35 42 48 51 57 64 65 68 73 76 75 77 81 86 87 92 93 92 90 83 71 63 45 29 43 55 57 68 74 73 81 87 90 89 89 89 92
Wind_Direction_850mb
223 224 231 237 246 256 264 272 277 284 292 298 303 303 300 295 292 287 286 289 288 281 279 272 269 269 271 265 259 260 271 272 274 277 275 290 276 268 257 250 244 221 233
216 222 232 239 242 250 261 270 278 284 291 297 299 298 294 291 287 281 281 281 281 274 277 277 279 280 276 264 262 263 264 262 267 278 266 272 276 273 254 253 234 222 233
213 220 231 237 250 258 269 276 283 286 291 294 295 292 290 289 283 277 281 281 277 271 273 277 281 279 276 279 271 263 259 259 260 278 276 266 276 257 236 244 237 226 215
213 220 230 246 251 261 261 268 276 285 290 293 292 289 287 285 279 281 286 286 279 271 269 269 271 273 268 272 276 274 272 262 257 259 263 262 265 247 231 214 204 213 207
216 221 231 238 247 257 265 275 282 283 286 289 289 288 286 281 282 286 287 281 276 274 276 275 275 271 265 264 264 267 270 268 267 261 258 253 254 234 215 210 204 215 206
219 225 233 246 253 260 265 274 282 287 287 286 286 288 287 285 284 284 276 270 272 274 276 272 273 273 268 268 265 261 254 255 254 250 250 247 244 236 219 214 212 205 200
224 231 237 245 254 260 271 275 277 277 282 284 287 291 292 293 293 292 288 282 278 275 273 272 271 267 266 267 269 267 262 258 252 249 252 242 238 242 228 217 215 214 225
220 226 238 251 258 262 267 269 276 280 281 286 290 294 295 293 290 290 284 282 282 281 279 277 275 266 263 262 264 263 261 263 257 247 246 240 234 224 222 233 231 221 216
218 228 247 258 263 261 266 274 276 283 286 287 289 290 292 292 290 290 291 289 286 283 282 280 273 271 272 265 260 261 260 260 260 259 249 251 232 225 230 221 212 206 208
218 248 251 251 256 271 274 278 288 290 291 297 300 299 294 301 310 311 308 300 294 289 289 289 287 283 280 271 261 260 257 255 254 247 248 243 238 228 233 229 223 213 206
233 236 247 264 272 268 281 291 297 303 304 299 302 311 312 311 307 291 287 286 285 284 282 283 285 283 279 271 261 254 254 254 248 245 244 241 239 227 226 232 219 223 215
232 247 265 258 266 281 292 300 299 300 310 312 306 303 297 286 291 295 292 289 283 279 284 287 288 290 287 278 270 264 256 243 240 239 240 227 226 222 216 220 213 221 230
253 257 258 277 287 295 287 297 304 313 305 305 306 305 307 306 309 310 312 307 304 302 298 295 295 293 288 281 270 261 250 233 232 230 229 222 214 217 213 211 215 225 224
253 266 279 281 290 294 293 307 310 305 309 309 308 308 309 310 312 317 316 310 306 304 302 300 297 293 286 277 268 255 240 228 219 219 220 218 206 206 208 206 209 213 211
252 272 282 291 285 301 312 302 314 315 308 306 306 311 311 309 313 311 308 308 306 304 304 296 292 290 287 278 263 241 230 216 213 212 207 211 201 193 202 198 203 205 207
257 276 281 295 308 306 312 321 304 310 306 313 319 316 311 310 312 314 315 312 314 312 306 301 300 301 289 276 254 228 213 208 200 201 196 203 191 190 195 195 193 203 202
259 289 299 321 309 319 330 319 326 319 330 332 337 331 324 322 330 327 324 331 333 330 324 323 317 309 293 264 240 212 197 199 193 194 190 198 192 181 186 186 191 195 199
320 324 326 328 330 333 325 330 324 335 338 341 345 343 343 346 345 351 351 351 344 343 340 333 329 334 287 264 224 198 188 185 187 189 187 194 181 186 191 188 195 192 195
22 343 357 344 358 340 342 343 349 348 347 349 347 348 353 354 357 5 359 1 354 349 346 343 343 334 270 249 193 182 178 178 182 182 188 188 182 185 188 193 191 190 193
349 22 14 26 359 0 4 7 5 3 2 2 3 1 359 3 11 12 10 9 1 357 354 353 356 341 210 182 168 179 176 177 174 176 180 177 183 194 192 192 191 192 197
46 14 6 5 7 17 18 21 19 16 13 12 13 16 22 19 20 20 16 15 9 6 1 8 26 322 181 170 170 178 177 176 174 173 179 179 183 184 195 192 195 198 198
83 24 346 0 12 26 28 25 24 24 24 23 23 25 30 29 28 28 25 22 19 19 17 22 43 103 121 163 169 181 181 178 183 182 185 190 188 185 190 194 193 195 197
25 34 359 358 11 22 26 24 27 29 31 30 30 28 32 33 33 33 30 27 25 29 27 34 45 130 133 155 153 174 179 182 189 188 186 184 180 186 192 194 193 192 195
30 40 39 360 11 16 26 30 31 33 30 29 30 31 33 36 36 37 34 31 31 33 31 38 46 63 155 165 171 166 168 174 178 180 179 182 187 192 195 198 197 200 198
57 47 40 40 27 34 48 48 35 32 31 29 30 30 32 36 37 38 36 36 37 38 40 40 45 53 62 117 160 175 184 183 185 190 194 197 199 197 198 199 196 195 194
68 57 44 61 57 57 47 32 24 31 34 33 33 33 34 33 35 36 36 38 41 41 42 43 44 50 59 64 77 141 177 186 192 196 198 201 203 201 200 203 204 203 201